Location: Asheville, NC
(35.6000°N, 82.5500°W)
Time: 23:42:16

XW-2A - Pass Details

Date: 16 March 2018
Orbit: 436 x 455 km, 97.4° (Epoch: 19 March)

Event Time Altitude Azimuth Distance (km) Brightness Sun altitude
Exits shadow 21:27:49 - 198° (SSW) 2,329 ? -22.8°
Reaches altitude 10° 21:30:00 10° 215° (SW) 1,536 ? -23.2°
Maximum altitude 21:32:30 20° 264° (W) 1,072 ? -23.7°
Drops below altitude 10° 21:35:00 10° 314° (NW) 1,549 ? -24.2°
Sets 21:37:25 0° 332° (NNW) 2,425 ? -24.6°
